Location: Cabobito
(9.9667°N, 67.8000°W)
Time: 21:19:06
(UTC+00:00)

Resurs 1-3 - Pass Details

Date: 18 April 2024
Orbit: 621 x 624 km, 97.7° (Epoch: 25 May)

Event Time Altitude Azimuth Distance (km) Brightness Sun altitude
Exits shadow 23:53:52 37° 106° (ESE) 969 4.0 -18.1°
Maximum altitude 23:54:41 41° 77° (ENE) 901 3.9 -18.3°
Drops below altitude 10° 23:58:46 10° 7° (N) 1,990 6.3 -19.2°
Sets 00:01:02 0° 0° (N) 2,896 7.2 -19.8°
